Dewpoint
39 40 41 43 43 42 42 42 41 42 43 44 43 43 44 45 47 45 43 45 42 37 35 33 33 32 32 31 28 31 31 33 32 28 25 23 21 20 20 19 20 20 21 20 22 19 16 26 23 20 20 14 12 14
37 37 39 40 42 42 42 43 42 40 41 42 43 44 43 43 46 44 40 45 44 39 37 37 36 37 35 33 33 34 31 30 30 32 31 29 25 26 20 15 23 18 19 17 18 18 28 27 19 18 12 10 13 14
36 36 36 37 40 41 42 42 43 41 40 41 42 44 44 44 44 44 42 43 41 37 36 37 34 35 36 36 37 34 35 32 33 33 34 32 26 28 22 21 21 21 23 22 22 22 24 26 21 15 15 15 23 25
35 35 35 36 37 40 40 41 42 42 41 41 41 44 43 45 45 45 42 43 41 37 34 32 32 31 33 35 37 35 34 35 35 36 34 32 27 28 21 20 19 18 21 19 19 19 20 21 18 12 18 21 20 20
34 34 35 35 35 38 41 40 41 42 42 42 40 42 44 44 44 43 43 43 43 37 32 30 30 28 32 33 35 35 35 36 34 32 31 28 29 26 26 25 22 19 16 15 13 14 15 15 17 20 18 19 19 18
35 34 34 34 34 36 38 41 40 41 42 42 41 40 44 45 43 41 34 41 42 41 34 28 28 28 32 33 33 34 37 35 35 33 33 32 29 29 26 21 18 19 19 18 17 18 19 19 19 18 18 17 16 17
35 34 34 34 34 35 38 40 40 43 43 42 44 43 42 42 42 36 34 39 41 40 33 28 26 27 29 31 32 34 35 34 34 33 31 30 27 30 28 20 17 16 17 17 16 17 18 19 19 17 17 16 17 16
34 34 34 34 34 35 38 40 40 40 43 43 43 42 41 39 38 36 39 40 39 35 35 26 24 24 28 27 27 30 31 32 31 31 27 25 26 28 23 19 16 15 17 16 15 15 16 16 15 14 14 15 14 15
34 34 34 34 34 34 39 41 39 39 40 40 40 38 38 37 35 37 40 39 39 36 30 27 23 21 26 26 27 29 30 26 28 27 24 23 24 20 15 15 14 13 13 14 14 14 13 13 12 12 12 12 12 12
34 34 33 33 34 33 37 43 39 39 39 34 35 35 30 33 39 38 35 34 32 33 32 25 23 22 22 22 23 23 25 24 21 20 24 23 17 11 10 12 13 14 14 14 14 14 12 12 11 11 10 10 11 10
34 33 33 33 33 33 34 41 39 39 37 37 32 30 36 36 34 31 25 25 26 23 25 23 21 21 23 21 21 22 22 21 16 18 18 16 14 11 12 13 13 12 12 12 12 12 10 10 11 10 10 9 8 8
34 33 32 32 33 33 31 34 41 38 37 34 34 35 34 30 26 20 20 20 19 17 21 22 22 23 23 24 24 23 20 19 14 20 17 12 11 10 12 12 13 14 14 11 10 12 11 10 10 12 11 10 9 9
34 33 31 31 32 32 31 29 32 39 38 36 32 28 27 24 17 16 13 17 17 21 21 22 21 24 24 25 25 21 17 16 16 16 12 11 10 11 12 13 13 13 13 13 12 11 11 11 10 12 12 11 10 11
32 33 30 30 32 32 30 28 28 35 35 32 27 20 21 17 19 19 18 19 17 19 20 21 21 21 23 21 23 17 19 17 14 12 9 9 10 11 12 13 14 12 11 11 10 10 10 11 10 10 11 12 12 10
34 33 28 28 31 31 29 27 26 30 30 27 25 19 19 16 16 16 17 17 16 18 20 21 21 21 20 20 20 19 15 11 11 9 10 10 11 12 9 6 6 7 9 9 9 8 9 9 9 9 9 11 10 10
33 30 25 32 31 31 26 19 17 23 21 21 19 16 15 17 15 16 17 16 14 17 19 21 18 17 16 17 14 13 10 8 9 11 11 11 8 6 5 4 5 8 8 9 9 9 9 8 8 8 9 9 9 9
30 24 31 30 30 26 21 14 15 12 16 14 13 14 15 15 15 14 15 14 13 16 18 19 14 12 14 11 9 10 9 10 12 11 8 6 7 7 7 5 5 7 7 8 8 8 8 9 8 7 5 7 9 10
26 28 30 28 25 16 15 16 13 11 7 10 11 10 9 9 11 10 10 10 13 15 16 14 13 12 10 7 7 8 9 10 8 7 7 7 7 7 6 6 6 7 8 8 7 7 7 7 7 8 10 11 11 11
27 26 26 26 20 15 16 12 13 7 7 10 10 10 9 7 7 7 8 8 8 9 11 11 9 9 7 7 8 8 7 7 6 6 6 8 8 6 6 6 7 7 8 9 9 9 9 10 9 10 10 11 10 10
24 24 23 21 17 17 11 10 12 10 8 8 9 8 8 6 5 5 6 5 7 9 9 7 5 5 5 5 6 7 6 6 6 5 5 6 6 7 8 8 8 9 8 9 9 12 10 11 12 12 12 12 12 11
20 22 17 14 11 10 7 5 7 7 8 6 5 6 6 5 5 5 5 1 7 4 5 4 5 5 5 5 5 6 5 5 5 5 5 4 5 8 8 8 9 7 7 7 7 8 10 9 10 11 11 11 11 12
19 17 15 11 10 7 4 3 5 5 5 3 4 3 5 5 3 -1 -4 4 4 4 4 5 5 4 4 4 3 4 4 2 4 4 8 8 6 7 7 7 8 7 8 8 8 8 9 10 11 12 13 13 13 13
13 12 10 9 6 5 -1 1 3 1 4 3 1 3 1 1 -2 -4 2 0 2 3 3 3 2 0 0 2 1 4 2 1 4 5 5 5 6 7 8 8 8 7 7 7 9 10 10 12 12 11 13 13 11 11
8 1 -1 0 1 -2 0 -1 -1 1 1 1 1 1 -1 -2 -4 1 3 3 3 4 4 2 2 3 3 3 4 3 4 5 4 5 6 5 5 5 6 7 7 8 9 9 10 10 10 12 13 12 11 10 10 9
3 -3 -1 -5 -1 -1 -2 -1 -2 1 -1 -6 -4 -1 -4 -7 -0 0 1 1 3 4 3 3 2 2 1 2 3 3 4 5 3 3 4 6 5 5 5 7 7 8 10 10 10 10 10 12 12 10 10 10 10 11
-5 -5 -3 -3 -2 -1 -3 -3 -4 -5 -6 -5 -4 -6 -8 -3 -3 -2 -1 1 3 3 2 2 1 0 1 2 1 2 3 5 4 2 4 6 5 4 3 3 4 6 11 11 10 11 11 10 10 10 10 10 14 12
-7 -4 -1 -2 -3 -2 -3 -3 -5 -5 -6 -6 -4 -5 -5 -9 -4 -2 0 2 3 3 3 1 0 -0 0 0 2 3 5 5 4 3 5 5 6 7 7 5 5 8 12 14 14 13 11 10 10 10 10 12 12 12
-2 -3 -6 -6 -6 -6 -7 -6 -6 -4 -5 -5 -6 -9 -8 -4 -3 0 2 3 3 2 2 2 0 0 -1 -1 0 1 3 3 4 4 5 7 11 10 10 13 13 16 15 14 16 14 13 12 12 13 12 11 10 12
-2 -5 -5 -14 -12 -8 -5 -3 -3 -4 -4 -5 -5 -4 -3 -1 1 2 4 4 1 2 2 1 1 -1 -0 1 2 2 2 2 0 -4 -5 -2 0 4 8 8 9 11 12 15 16 16 16 17 15 15 13 12 13 14
-6 -6 -6 -13 -13 -2 -4 -6 -5 -5 -5 -4 -5 -5 -4 -2 1 3 3 3 3 1 1 -1 -2 -3 -5 -6 -4 -2 1 3 4 1 -3 -3 -1 3 6 8 9 12 16 13 11 11 14 14 13 11 11 10 10 12
-6 -6 -6 -6 -4 -5 -7 -9 -9 -8 -7 -8 -8 -7 -6 -4 -2 2 3 3 2 2 2 2 -0 1 -2 -2 -4 -5 -4 1 -1 1 4 5 5 6 8 12 16 17 14 12 11 10 8 8 9 8 8 7 8 9
-5 -7 -4 -5 -4 -8 -8 -9 -9 -8 -8 -7 -6 -8 -6 -5 -3 1 3 3 2 1 3 2 -1 -1 1 1 -2 -3 5 1 0 1 -0 5 9 13 16 17 16 16 13 11 10 9 8 7 7 7 7 7 6 7
-11 -9 -8 -7 -6 -6 -8 -8 -6 -6 -7 -6 -5 -5 -5 -5 -4 1 4 4 3 1 1 1 2 1 1 -1 -3 -3 3 -1 -1 11 12 14 17 17 19 16 16 15 11 10 9 8 7 6 5 5 5 6 5 5
Lifted_Index
3 3 2 2 1 1 1 1 1 1 1 1 1 2 3 3 3 3 3 3 3 3 3 4 4 4 4 4 5 5 6 6 6 6 6 6 6 6 6 6 6 5 5 5 5 4 4 5 6 6 7 8 10 10
4 4 3 2 2 1 1 1 1 1 1 1 1 1 2 3 3 3 3 3 3 3 3 3 3 4 4 4 4 5 5 5 5 5 5 5 5 5 5 5 5 5 5 4 4 4 4 5 6 6 7 8 9 9
5 5 4 4 3 2 2 1 1 1 1 1 1 1 1 2 3 3 3 3 3 3 3 3 3 3 3 4 4 4 4 4 4 4 4 4 5 5 4 4 4 4 4 4 4 4 4 4 5 5 6 7 8 8
6 6 5 5 4 3 2 1 1 1 1 1 1 1 1 2 2 3 3 3 3 3 2 3 3 3 3 3 4 4 4 4 4 4 4 4 4 4 4 4 4 4 4 3 3 3 3 3 4 5 5 6 7 7
6 6 6 6 5 3 2 1 1 1 1 1 1 1 1 1 2 3 3 3 3 3 2 3 3 3 4 4 3 3 3 3 3 3 3 3 3 3 3 3 3 3 3 3 2 2 2 3 4 4 5 5 6 6
6 6 6 6 6 5 3 2 1 1 1 1 1 1 1 1 2 2 3 3 3 3 2 3 3 4 4 4 4 3 3 3 3 3 3 3 3 2 2 2 2 3 3 2 2 2 2 3 4 4 5 5 5 5
6 6 6 7 6 5 4 3 1 1 0 1 1 1 1 1 2 2 2 3 3 3 3 2 3 3 4 4 4 4 3 3 3 3 2 2 2 2 2 2 2 2 2 2 2 2 3 3 4 4 4 4 4 4
5 6 6 7 7 6 5 3 2 1 1 1 1 1 2 2 2 2 3 3 3 3 3 3 3 3 4 4 3 4 3 3 3 3 2 2 2 2 1 1 2 1 1 2 2 3 3 3 4 4 5 5 5 5
5 6 6 6 7 6 5 4 3 2 2 2 2 2 2 2 3 3 3 3 3 3 3 3 3 3 3 3 3 3 3 3 3 3 2 2 2 2 2 2 2 2 2 2 3 3 4 4 5 5 5 6 6 6
5 5 6 6 6 6 4 3 3 3 3 3 3 3 3 3 3 3 3 3 3 3 3 3 3 3 4 4 3 3 3 3 3 3 3 3 3 2 2 2 3 3 4 4 4 5 5 5 6 6 7 7 8 8
5 5 6 6 7 6 4 3 3 4 4 4 4 4 4 4 4 4 4 4 4 4 4 4 4 4 4 4 4 4 4 4 4 4 4 4 3 3 3 4 5 6 6 6 7 7 7 7 7 7 8 8 9 9
5 5 6 6 7 7 6 5 4 4 4 5 5 5 5 5 4 4 4 5 5 5 5 5 5 5 5 5 5 5 5 5 5 5 4 4 4 4 4 5 6 7 8 8 8 8 9 9 9 8 8 8 9 9
5 5 6 6 7 7 7 7 6 5 5 5 5 5 5 5 4 4 4 5 5 6 6 6 5 5 5 5 5 5 5 5 5 5 5 5 5 5 6 7 8 8 9 9 9 9 9 9 9 9 9 9 9 8
5 6 6 7 7 7 8 9 8 6 5 4 4 4 4 4 4 4 5 5 5 6 6 6 6 5 5 5 5 5 5 5 5 5 5 5 6 7 8 8 9 9 9 9 10 10 9 9 9 9 9 9 9 9
5 6 7 7 7 7 8 9 9 7 5 4 4 4 4 4 4 4 4 5 5 5 5 5 5 5 5 5 5 5 5 5 5 5 5 6 7 8 9 9 9 10 10 10 10 9 9 9 9 9 9 9 9 9
6 7 8 8 7 8 8 9 8 7 6 5 4 4 4 3 3 4 4 4 5 5 5 5 5 4 4 5 5 4 4 4 5 6 7 8 9 9 10 10 10 10 10 10 9 9 9 9 9 9 9 10 10 10
7 8 8 8 8 8 9 8 8 7 6 5 5 4 4 3 3 4 4 5 5 5 4 4 4 4 4 4 4 5 5 5 6 7 8 9 10 10 10 10 10 10 10 9 9 9 10 10 10 10 10 10 11 11
8 8 9 9 9 9 8 8 7 7 6 6 6 5 5 5 5 5 5 6 6 6 5 5 5 5 5 5 5 5 6 7 8 9 9 10 10 11 11 10 10 10 10 10 10 10 10 11 11 11 11 11 11 11
8 9 9 10 10 9 8 8 7 7 6 6 6 6 6 6 6 7 7 7 7 7 7 6 6 6 6 6 7 7 8 8 9 9 9 10 10 10 10 10 10 10 10 10 11 11 11 11 12 12 12 12 12 12
8 9 9 10 9 9 8 8 8 7 7 7 7 7 7 7 7 8 8 8 8 8 7 7 7 7 8 8 8 9 9 9 9 9 9 9 10 10 10 10 10 11 11 11 11 12 12 12 13 13 13 13 13 13
8 8 9 9 9 8 8 8 8 7 7 7 7 7 7 7 7 7 8 8 8 8 8 8 8 8 9 9 9 10 10 10 9 8 8 8 9 9 10 10 11 11 11 12 12 12 12 13 13 13 13 13 13 13
8 8 8 8 8 8 8 8 8 7 7 7 7 7 7 7 7 7 7 8 8 8 8 8 9 9 9 9 9 10 10 10 9 9 9 9 9 9 10 11 11 11 11 12 12 12 13 13 13 13 13 12 12 12
7 7 7 6 6 6 7 7 7 7 6 6 6 6 6 6 7 7 7 7 8 8 9 9 9 9 9 9 9 9 10 9 9 9 9 9 9 10 10 11 12 12 12 12 13 13 13 13 13 12 12 11 11 10
6 6 5 5 6 6 6 7 7 6 6 6 6 6 6 6 6 6 6 6 7 8 9 9 9 9 9 9 9 9 9 9 9 9 9 9 9 10 11 12 12 13 13 13 13 12 12 12 11 11 10 10 9 9
5 5 5 5 5 6 6 6 6 6 6 5 5 5 5 6 6 5 5 6 7 8 8 8 8 8 8 8 9 9 9 10 9 9 10 10 10 10 10 11 12 12 13 12 12 11 11 10 10 10 9 9 9 9
4 4 5 5 6 6 6 6 6 6 6 5 5 5 5 5 5 5 5 6 7 8 8 8 8 8 8 9 9 9 10 10 10 10 10 11 11 11 11 11 11 12 12 12 12 11 10 10 9 9 9 9 9 9
4 4 5 5 6 6 6 7 7 6 6 5 5 5 5 4 4 5 6 7 8 9 9 10 10 9 9 9 10 10 11 11 11 11 11 11 12 12 12 11 11 12 12 12 12 11 10 10 9 9 9 9 9 9
4 4 5 6 6 7 7 7 7 7 6 6 5 5 5 5 5 6 8 9 10 10 10 10 10 10 10 10 11 11 11 11 11 10 11 11 11 12 12 12 12 13 12 12 12 11 11 10 10 9 9 9 9 9
5 5 5 6 6 7 7 7 7 7 7 6 6 5 6 6 7 8 9 10 11 10 10 10 11 11 11 11 11 11 11 11 10 9 9 9 10 11 12 12 13 13 12 12 11 11 11 10 10 10 10 10 10 10
5 6 6 6 6 7 7 8 8 8 8 7 7 7 7 8 9 11 11 11 11 11 10 10 10 10 10 10 10 10 11 11 10 10 9 9 10 11 12 12 12 12 12 12 11 11 11 10 10 10 10 10 10 10
6 6 6 6 7 7 8 8 8 8 8 7 8 7 7 8 10 11 12 12 12 11 11 11 10 10 10 9 9 10 10 11 11 11 11 11 11 12 12 12 12 12 12 11 11 11 11 10 10 10 10 10 10 10
7 7 7 7 7 8 8 8 8 8 7 7 8 8 8 8 9 11 12 13 12 12 11 11 11 10 10 10 10 11 11 11 12 12 12 12 12 12 12 12 12 12 12 12 11 11 11 11 11 10 11 11 10 10
7 7 8 8 8 8 8 8 8 7 7 7 8 8 8 8 9 11 13 13 13 12 12 11 11 11 11 11 11 11 11 12 12 12 12 12 12 12 12 12 12 12 12 12 12 11 11 11 11 11 11 11 11 11